Rifle, CO

3:18 AM MDT on July 22, 2017 (GMT -0600)
Garfield County Regional

Weather History for KRIL - August, 2013

Change the Weather History Date:

Thursday, August 1, 2013

  Actual Average Record
Temperature  
Mean Temperature 66 °F 73 °F  
Max Temperature 77 °F 91 °F 100 °F (1926)
Min Temperature 55 °F 55 °F 38 °F (1962)
Degree Days  
Heating Degree Days 0 0  
Month to date heating degree days 0 0  
Since 1 June heating degree days 13 60  
Since 1 July heating degree days 0 1  
Cooling Degree Days 1 8  
Month to date cooling degree days 1 8  
Year to date cooling degree days 498 351  
Since 1 June cooling degree days 491 344  
Growing Degree Days 16 (Base 50)    
Moisture  
Dew Point 47 °F    
Average Humidity 61    
Maximum Humidity 90    
Minimum Humidity 31    
Precipitation  
Precipitation 0.02 in 0.05 in 0.70 in (1921)
Month to date precipitation 0.02 0.05  
Year to date precipitation 4.78 7.62  
Sea Level Pressure  
Sea Level Pressure 30.04 in    
Wind  
Wind Speed 4 mph (SSW)    
Max Wind Speed 24 mph    
Max Gust Speed 28 mph    
Visibility 10 miles    
Events Rain , Thunderstorm    
T = Trace of Precipitation, MM = Missing Value Source: NWS Daily Summary

Daily Weather History Graph

Daily Weather History Graph

Search for Another Location

Airport or City:

Trip Planner

Search our weather history database for the weather conditions in past years. The results will help you decide how hot, cold, wet, or windy it might be!

Date:

Astronomy

Aug. 01, 2013 Rise Set
Actual Time 6:10 AM MDT 8:23 PM MDT
Civil Twilight 5:40 AM MDT 8:53 PM MDT
Nautical Twilight 5:03 AM MDT 9:29 PM MDT
Astronomical Twilight 4:23 AM MDT 10:09 PM MDT
Moon 1:49 AM MDT (8/1) 4:34 PM MDT (8/1)
Length of Visible Light 15h 12m
Length of Day
14h 12m
Waning Crescent, 23% of the Moon is Illuminated
Aug 1
Waning Crescent
Aug 6
New
Aug 14
First Quarter
Aug 20
Full
Aug 28
Last Quarter

Hourly Weather History & Observations

Time (MDT) Temp. Dew Point Humidity Pressure Visibility Wind Dir Wind Speed Gust Speed Precip Events Conditions
12:53 AM 69.1 °F 39.9 °F 35% 29.97 in 10.0 mi East 4.6 mph - N/A   Clear
1:53 AM 64.0 °F 39.9 °F 41% 29.97 in 10.0 mi SE 6.9 mph - N/A   Clear
2:53 AM 62.1 °F 39.0 °F 43% 29.96 in 10.0 mi Calm Calm - N/A   Clear
3:53 AM 59.0 °F 39.9 °F 49% 29.96 in 10.0 mi SE 4.6 mph - N/A   Clear
4:53 AM 57.9 °F 39.0 °F 49% 29.98 in 10.0 mi Calm Calm - N/A   Clear
5:53 AM 57.0 °F 39.0 °F 51% 29.99 in 10.0 mi Calm Calm - N/A   Clear
6:53 AM 57.9 °F 39.9 °F 51% 30.00 in 10.0 mi South 3.5 mph - N/A   Clear
7:53 AM 63.0 °F 42.1 °F 46% 29.99 in 10.0 mi Calm Calm - N/A   Clear
8:53 AM 66.9 °F 44.1 °F 44% 30.00 in 10.0 mi Calm Calm - N/A   Clear
9:53 AM 71.1 °F 44.1 °F 38% 30.01 in 10.0 mi Calm Calm - N/A   Mostly Cloudy
10:10 AM 71.6 °F 42.8 °F 35% 30.23 in 10.0 mi Calm Calm - N/A Thunderstorm Thunderstorm
10:37 AM 73.4 °F 39.2 °F 29% 30.24 in 10.0 mi Calm Calm - N/A   Overcast
10:53 AM 72.0 °F 44.1 °F 37% 30.03 in 10.0 mi NW 3.5 mph - N/A   Overcast
11:53 AM 75.0 °F 42.1 °F 31% 30.04 in 10.0 mi East 3.5 mph - N/A   Mostly Cloudy
12:53 PM 75.9 °F 46.9 °F 36% 30.04 in 10.0 mi West 17.3 mph 21.9 mph N/A   Mostly Cloudy
1:53 PM 72.0 °F 52.0 °F 49% 30.11 in 10.0 mi Variable 5.8 mph 16.1 mph N/A   Mostly Cloudy
2:53 PM 68.0 °F 54.0 °F 61% 30.12 in 10.0 mi WSW 11.5 mph - 0.00 in Rain Light Rain
3:53 PM 66.9 °F 55.0 °F 66% 30.10 in 10.0 mi Variable 3.5 mph - 0.00 in Rain Light Rain
4:53 PM 69.1 °F 54.0 °F 58% 30.09 in 10.0 mi West 9.2 mph - 0.00 in   Clear
5:53 PM 68.0 °F 54.0 °F 61% 30.08 in 10.0 mi NNW 3.5 mph - 0.00 in   Overcast
6:53 PM 64.0 °F 57.0 °F 78% 30.08 in 10.0 mi WNW 4.6 mph - 0.00 in Rain Light Rain
7:53 PM 62.1 °F 57.9 °F 86% 30.06 in 10.0 mi East 3.5 mph - 0.02 in   Clear
8:53 PM 61.0 °F 57.0 °F 87% 30.05 in 10.0 mi Calm Calm - N/A   Clear
9:53 PM 60.1 °F 57.0 °F 90% 30.02 in 10.0 mi South 3.5 mph - N/A   Clear
10:53 PM 60.1 °F 55.9 °F 86% 30.01 in 10.0 mi Calm Calm - N/A   Clear
11:53 PM 59.0 °F 55.9 °F 90% 30.01 in 10.0 mi Calm Calm - N/A   Clear